Погода в Росоше

Украина / Винницкая область     48°38′58″N   29°51′53″E
темп.,
°C
ветер,
м/с
пор.,
м/с
влажн.,
%
обл.,
%
осадки,
мм/ч
давл.,
гПа
погр.,
м
27 января, ср
ср2723:00−1зсз3880100 0.0 1010550
02:00−1сз4876100 0.0 1010525
05:00−1ссз5977100 0.0 1009524
08:00−1с5880100 0.0 1008565
11:00−1с61075100 0.1 1009681
14:000с71169100 0.1 1006784
17:00−1с71182100 0.1 1006756
20:00−2с91485100 0.8 1004799
28 января, чт
чт2823:00−2с91494100 2.9 1003816
02:00−2с101694100 5.7 1001818
05:00−2с111791100 0.5 1000752
08:00−2с81595100 1.3 1000756
11:00−1с91495100 3.3 1000758
14:00−1с81397100 7.0 999735
17:00−1с61297100 2.0 1000693
20:00−2ссз61196100 3.0 1000606
29 января, пт
пт2923:00−3ссз6119598 0.5 1000486
02:00−3сз6109599 1.1 1001444
05:00−6зсз479595 0.3 1001138
08:00−5зюз499497 0.3 1002282
11:00−2юз61196100 0.8 1001520
14:000зюз71297100 1.9 1000690
17:00−1зюз51191100 0.3 1000603
20:00−5зюз469285 0.3 100196
30 января, сб
сб3023:00−5юз3490100 0.0 100250
02:00−4юз3487100 0.0 100162
05:00−3юв3485100 0.0 99971
08:00−3юв4897100 0.8 997286
11:00−1ююв5898100 3.1 996306
14:00+1ю36100100 6.2 993169
17:00+1зюз4799100 0.4 994171
20:00−3зсз469697 0.4 996200
31 января, вс
вс3123:00−7сз229628 0.0 99721
02:00−7сз239415 0.0 99825
05:00−5сз249793 0.5 1000164
08:00−6ссз359597 0.6 1003146
11:00−4ссз2393100 0.0 1005227
14:00−3с2288100 0.0 1007297
17:00−4всв1192100 0.0 100721
20:00−4всв2497100 0.8 1007143